Weather History for KEPH - July, 2013

Change the Weather History Date:

Wednesday, July 17, 2013

  Actual Average Record
Temperature  
Mean Temperature 83 °F 75 °F  
Max Temperature 94 °F 89 °F 107 °F (1960)
Min Temperature 72 °F 61 °F 47 °F (2001)
Degree Days  
Heating Degree Days 0 0  
Month to date heating degree days 0 4  
Since 1 June heating degree days 58 64  
Since 1 July heating degree days 0 4  
Cooling Degree Days 18 10  
Month to date cooling degree days 217 142  
Year to date cooling degree days 386 289  
Since 1 June cooling degree days 329 252  
Growing Degree Days 33 (Base 50)    
Moisture  
Dew Point 47 °F    
Average Humidity 35    
Maximum Humidity 49    
Minimum Humidity 20    
Precipitation  
Precipitation T in 0.01 in 0.26 in (1999)
Month to date precipitation T 0.22  
Year to date precipitation 3.61 4.29  
Sea Level Pressure  
Sea Level Pressure 29.90 in    
Wind  
Wind Speed 11 mph (WNW)    
Max Wind Speed 24 mph    
Max Gust Speed 31 mph    
Visibility 10 miles    
Events Thunderstorm    
T = Trace of Precipitation, MM = Missing Value Source: NWS Daily Summary

Daily Weather History Graph

Daily Weather History Graph

Search for Another Location

Airport or City:

Trip Planner

Search our weather history database for the weather conditions in past years. The results will help you decide how hot, cold, wet, or windy it might be!

Date:

Astronomy

Jul. 17, 2013 Rise Set
Actual Time 5:19 AM PDT 8:48 PM PDT
Civil Twilight 4:41 AM PDT 9:26 PM PDT
Nautical Twilight 3:50 AM PDT 10:16 PM PDT
Astronomical Twilight 2:43 AM PDT 11:22 PM PDT
Moon 3:38 PM PDT (7/17) 12:37 AM PDT (7/17)
Length of Visible Light 16h 45m
Length of Day
15h 29m
Waxing Gibbous, 68% of the Moon is Illuminated
Jul 17
Waxing Gibbous
Jul 22
Full
Jul 29
Last Quarter
Aug 6
New
Aug 14
First Quarter

Hourly Weather History & Observations

Time (PDT) Temp. Heat Index Dew Point Humidity Pressure Visibility Wind Dir Wind Speed Gust Speed Precip Events Conditions
12:53 AM 81.0 °F - 43.0 °F 26% 29.76 in 10.0 mi North 15.0 mph - N/A   Partly Cloudy
1:53 AM 79.0 °F - 39.0 °F 24% 29.81 in 10.0 mi WNW 9.2 mph - N/A   Clear
2:50 AM 77.0 °F - 42.8 °F 29% 29.82 in 10.0 mi WNW 4.6 mph - N/A   Clear
2:53 AM 77.0 °F - 43.0 °F 30% 29.79 in 10.0 mi Calm Calm - N/A   Clear
3:53 AM 79.0 °F - 39.0 °F 24% 29.81 in 10.0 mi NW 16.1 mph - N/A   Partly Cloudy
4:53 AM 78.1 °F - 43.0 °F 29% 29.81 in 10.0 mi NNW 18.4 mph - N/A   Scattered Clouds
5:53 AM 78.1 °F - 43.0 °F 29% 29.82 in 10.0 mi North 12.7 mph - N/A   Overcast
6:27 AM 78.8 °F - 46.4 °F 32% 29.91 in 10.0 mi WSW 9.2 mph 20.7 mph N/A Thunderstorm Thunderstorm
6:53 AM 73.0 °F - 53.1 °F 49% 29.87 in 10.0 mi NW 18.4 mph 23.0 mph 0.00 in   Scattered Clouds
7:53 AM 73.9 °F - 52.0 °F 46% 29.90 in 10.0 mi North 16.1 mph - 0.00 in   Clear
8:53 AM 81.0 °F - 51.1 °F 35% 29.92 in 10.0 mi North 17.3 mph - N/A   Clear
9:53 AM 82.0 °F - 50.0 °F 33% 29.94 in 10.0 mi North 17.3 mph - N/A   Clear
10:53 AM 84.9 °F - 48.9 °F 29% 29.96 in 10.0 mi North 16.1 mph - N/A   Clear
11:53 AM 86.0 °F - 48.9 °F 28% 29.96 in 10.0 mi North 10.4 mph 18.4 mph N/A   Clear
12:53 PM 88.0 °F - 48.9 °F 26% 29.96 in 10.0 mi Variable 6.9 mph - N/A   Clear
1:53 PM 90.0 °F - 48.9 °F 24% 29.96 in 10.0 mi SW 8.1 mph - N/A   Clear
2:53 PM 91.0 °F - 46.9 °F 22% 29.95 in 10.0 mi South 10.4 mph - N/A   Clear
3:53 PM 91.9 °F - 48.0 °F 22% 29.94 in 10.0 mi SSW 5.8 mph 18.4 mph N/A   Clear
4:53 PM 91.9 °F - 48.0 °F 22% 29.93 in 10.0 mi WSW 8.1 mph - N/A   Clear
5:53 PM 93.0 °F - 46.9 °F 20% 29.92 in 10.0 mi South 9.2 mph 16.1 mph N/A   Clear
6:53 PM 91.9 °F - 48.0 °F 22% 29.92 in 10.0 mi South 11.5 mph - N/A   Clear
7:53 PM 89.1 °F - 48.0 °F 24% 29.93 in 10.0 mi SSE 9.2 mph - N/A   Clear
8:53 PM 82.9 °F - 50.0 °F 32% 29.94 in 10.0 mi Calm Calm - N/A   Clear
9:53 PM 82.0 °F 81.2 °F 53.1 °F 37% 29.96 in 10.0 mi Calm Calm - N/A   Clear
10:53 PM 80.1 °F - 41.0 °F 25% 29.96 in 10.0 mi NW 11.5 mph - N/A   Clear
11:53 PM 78.1 °F - 50.0 °F 37% 29.98 in 10.0 mi NNW 11.5 mph - N/A   Clear